Greenville/Spartanburg, SC

9:37 AM EST on November 20, 2017 (GMT -0500)
Greenville-Spartanburg International

Weather History for KGSP - October, 2012

Change the Weather History Date:

Monday, October 8, 2012

  Actual Average Record
Temperature  
Mean Temperature 52 °F 64 °F  
Max Temperature 55 °F 75 °F 94 °F (1941)
Min Temperature 49 °F 53 °F 30 °F (1889)
Degree Days  
Heating Degree Days 13 3  
Month to date heating degree days 21 20  
Since 1 July heating degree days 25 37  
Cooling Degree Days 0 2  
Month to date cooling degree days 25 22  
Year to date cooling degree days 1814 1684  
Moisture  
Dew Point 45 °F    
Average Humidity 75    
Maximum Humidity 86    
Minimum Humidity 63    
Precipitation  
Precipitation 0.00 in 0.12 in 3.41 in (1976)
Month to date precipitation 2.31 0.94  
Year to date precipitation 32.03 36.88  
Snow  
Snow 0.00 in 0.00 in 0.00 in ()
Month to date snowfall 0.0 0.0  
Since 1 July snowfall T 0.0  
Since 1 September snowfall 0.0 0.0  
Snow Depth 0.00 in    
Sea Level Pressure  
Sea Level Pressure 30.14 in    
Wind  
Wind Speed 9 mph (NE)    
Max Wind Speed 15 mph    
Max Gust Speed 21 mph    
Visibility 10 miles    
Events      
T = Trace of Precipitation, MM = Missing Value Source: NWS Daily Summary

Daily Weather History Graph

Daily Weather History Graph

Search for Another Location

Airport or City:

Trip Planner

Search our weather history database for the weather conditions in past years. The results will help you decide how hot, cold, wet, or windy it might be!

Date:

Astronomy

Oct. 08, 2012 Rise Set
Actual Time 7:29 AM EDT 7:02 PM EDT
Civil Twilight 7:04 AM EDT 7:27 PM EDT
Nautical Twilight 6:34 AM EDT 7:57 PM EDT
Astronomical Twilight 6:05 AM EDT 8:26 PM EDT
Moon 12:23 AM EDT (10/8) 2:36 PM EDT (10/8)
Length of Visible Light 12h 23m
Length of Day
11h 33m
Waning Gibbous, 46% of the Moon is Illuminated
Oct 8
Waning Gibbous
Oct 15
New
Oct 21
First Quarter
Oct 29
Full
Nov 6
Last Quarter

Hourly Weather History & Observations

Time (EDT) Temp. Dew Point Humidity Pressure Visibility Wind Dir Wind Speed Gust Speed Precip Events Conditions
12:53 AM 55.0 °F 48.9 °F 80% 30.11 in 10.0 mi NE 5.8 mph - N/A   Overcast
1:29 AM 53.6 °F 50.0 °F 88% 30.11 in 10.0 mi NE 6.9 mph - N/A   Overcast
1:53 AM 54.0 °F 48.9 °F 83% 30.10 in 10.0 mi ENE 6.9 mph - N/A   Overcast
2:53 AM 54.0 °F 48.0 °F 80% 30.10 in 10.0 mi NE 6.9 mph - N/A   Overcast
3:53 AM 54.0 °F 46.9 °F 77% 30.11 in 10.0 mi NNE 6.9 mph - N/A   Overcast
4:53 AM 53.1 °F 44.1 °F 71% 30.12 in 10.0 mi NE 10.4 mph - N/A   Overcast
5:53 AM 52.0 °F 43.0 °F 71% 30.12 in 10.0 mi NNE 10.4 mph - N/A   Overcast
6:53 AM 51.1 °F 41.0 °F 68% 30.13 in 10.0 mi NE 9.2 mph - N/A   Overcast
7:53 AM 51.1 °F 41.0 °F 68% 30.14 in 10.0 mi NE 10.4 mph - N/A   Overcast
8:27 AM 51.8 °F 41.0 °F 67% 30.15 in 10.0 mi NNE 11.5 mph - N/A   Overcast
8:53 AM 51.1 °F 39.9 °F 66% 30.14 in 10.0 mi NNE 10.4 mph - N/A   Overcast
9:13 AM 51.8 °F 39.2 °F 62% 30.15 in 10.0 mi NE 12.7 mph - N/A   Overcast
9:53 AM 51.1 °F 41.0 °F 68% 30.17 in 10.0 mi NNE 12.7 mph - N/A   Overcast
10:53 AM 52.0 °F 42.1 °F 69% 30.18 in 10.0 mi NE 9.2 mph - N/A   Overcast
11:53 AM 52.0 °F 42.1 °F 69% 30.17 in 10.0 mi NE 15.0 mph - N/A   Overcast
12:53 PM 52.0 °F 43.0 °F 71% 30.16 in 10.0 mi NE 12.7 mph 19.6 mph N/A   Overcast
1:53 PM 52.0 °F 44.1 °F 74% 30.15 in 10.0 mi NNE 11.5 mph - N/A   Overcast
2:53 PM 52.0 °F 45.0 °F 77% 30.12 in 10.0 mi NNE 11.5 mph - N/A   Overcast
3:08 PM 51.8 °F 44.6 °F 76% 30.13 in 10.0 mi North 10.4 mph - N/A   Overcast
3:51 PM 50.0 °F 46.4 °F 87% 30.13 in 10.0 mi NNE 9.2 mph - N/A   Overcast
3:53 PM 50.0 °F 46.0 °F 86% 30.12 in 10.0 mi NNE 10.4 mph - N/A   Overcast
4:53 PM 50.0 °F 46.9 °F 89% 30.11 in 10.0 mi NNE 8.1 mph - N/A   Overcast
5:53 PM 50.0 °F 46.0 °F 86% 30.11 in 10.0 mi NE 8.1 mph - N/A   Overcast
6:53 PM 50.0 °F 46.0 °F 86% 30.13 in 10.0 mi NNE 6.9 mph - N/A   Mostly Cloudy
7:53 PM 50.0 °F 46.4 °F 87% 30.13 in 10.0 mi NE 8.1 mph - N/A   Overcast
8:53 PM 50.0 °F 45.0 °F 83% 30.14 in 10.0 mi NE 6.9 mph - N/A   Overcast
9:53 PM 48.9 °F 45.0 °F 86% 30.15 in 10.0 mi NE 9.2 mph - N/A   Overcast
10:53 PM 48.9 °F 45.0 °F 86% 30.16 in 10.0 mi NNE 8.1 mph - N/A   Overcast
11:42 PM 48.2 °F 44.6 °F 87% 30.16 in 10.0 mi NNE 6.9 mph - N/A   Overcast
11:53 PM 48.9 °F 45.0 °F 86% 30.16 in 10.0 mi NE 5.8 mph - N/A   Overcast